Regional Weather Roundup
Issued by NWS

Home | Current Version | Previous Version | Text Only | Print | Product List | Glossary Off
Versions: 1 2 3 4 5 6 7 8 9 10 11 12 13 14 15 16 17 18 19 20 21 22 23 24 25 26 27 28 29 30 31 32 33 34 35 36 37 38 39 40 41 42 43 44 45 46 47 48 49 50

691
ASUS43 KFSD 041110
RWRSD

WEATHER ROUNDUP FOR SOUTH DAKOTA
NATIONAL WEATHER SERVICE SIOUX FALLS SD
500 AM CST SUN DEC 04 2016

NOTE: "FAIR" INDICATES FEW OR NO CLOUDS BELOW 12,000 FEET WITH NO
SIGNIFICANT WEATHER AND/OR OBSTRUCTIONS TO VISIBILITY.


SDZ001>005-009-010-012>017-041200-
NORTHWEST AND NORTH CENTRAL SOUTH DAKOTA

CITY           SKY/WX    TMP DP  RH WIND       PRES   REMARKS
BUFFALO          N/A     28  20  71 W13       29.76F WCI  17
FAITH            N/A     28  24  85 W16       29.84F WCI  16
MOBRIDGE       CLEAR     31  23  72 W12       29.79S WCI  22
$$

SDZ012>016-024>037-041>051-057-063-072>074-041200-
SOUTHWEST AND SOUTH CENTRAL SOUTH DAKOTA

CITY           SKY/WX    TMP DP  RH WIND       PRES   REMARKS
RAPID CTY ARPT CLEAR     20  15  81 NW6       29.89F WCI  12
PIERRE         CLEAR     32  24  72 W10       29.86S WCI  24
CUSTER         CLOUDY    24  15  68 W8        29.86F WCI  15
ELLSWORTH AFB  CLEAR     29  21  71 W9        29.88S WCI  21
PHILIP         PTCLDY    26  22  84 W9        29.90S WCI  17
PINE RIDGE     CLOUDY    30  19  63 W9        29.95S WCI  22
SPEARFISH      CLOUDY    32  19  59 W10       29.89F WCI  24
WINNER         FAIR      33  25  72 W8        29.89F WCI  26
$$

SDZ004>011-016>023-039-040-041200-
NORTHEAST SOUTH DAKOTA

CITY           SKY/WX    TMP DP  RH WIND       PRES   REMARKS
ABERDEEN       MIX PCPN  30  26  85 SW5       29.80F WCI  25
WATERTOWN      CLOUDY    31  30  96 S17       29.81F WCI  19
BROOKINGS      CLOUDY    32  30  92 S15       29.84F WCI  22
SISSETON         N/A     35  31  85 S12       29.80F WCI  27
$$

SDZ017-020-022-023-036>040-048>070-041200-
SOUTHEAST SOUTH DAKOTA

CITY           SKY/WX    TMP DP  RH WIND       PRES   REMARKS
SIOUX FALLS    CLOUDY    33  33 100 S9        29.88F WCI  25
HURON          MOCLDY    29  26  89 SW8       29.85F WCI  21
CHAMBERLAIN    CLEAR     30  26  85 W9        29.88S WCI  21
MITCHELL       CLOUDY    31  26  82 SW7       29.89F WCI  24
YANKTON        CLEAR     30  28  93 S3        29.90F
$$

ABBREVIATIONS USED IN REMARKS
   TC - TEMPERATURE IN CELSIUS
  WCI - WIND CHILL INDEX
   HX - HEAT INDEX
  VSB - VISIBILITY





USA.gov is the U.S. government's official web portal to all federal, state and local government web resources and services.